Regional Weather Roundup
Issued by NWS

Home | Current Version | Previous Version | Text Only | Print | Product List | Glossary Off
Versions: 1 2 3 4 5 6 7 8 9 10 11 12 13 14 15 16 17 18 19 20 21 22 23 24 25 26 27 28 29 30 31 32 33 34 35 36 37 38 39 40 41 42 43 44 45 46 47 48 49 50

000
ASUS43 KDMX 240607
RWRIA

WEATHER ROUNDUP FOR IOWA
NATIONAL WEATHER SERVICE DES MOINES IA
1200 AM CST MON NOV 24 2014

NOTE: "FAIR" INDICATES FEW OR NO CLOUDS BELOW 12,000 FEET WITH NO
SIGNIFICANT WEATHER AND/OR OBSTRUCTIONS TO VISIBILITY.

* - THESE STATIONS ARE NOT NWS STATIONS...THUS NOT UNDER NWS
QUALITY CONTROL.  THEY ALSO DO NOT REPORT WEATHER SUCH
AS PRECIPITATION OR FOG.

IAZ001>003-012>014-020>022-031>034-043>046-240700-
   NORTHWEST IOWA

CITY           SKY/WX    TMP DP  RH WIND       PRES   REMARKS
CARROLL *      CLOUDY    32  27  80 NW25      29.45S WCI  19
CHEROKEE *     CLOUDY    29  23  79 NW17G30   29.49S WCI  16
DENISON *      CLOUDY    30  23  74 NW21G31   29.47S WCI  17
LE MARS *      CLOUDY    28  21  74 NW23G29   29.53F WCI  14
ORANGE CITY *  CLOUDY    28  19  69 NW17G29   29.50S WCI  16
SHELDON *      CLOUDY    27  21  80 NW23G30   29.47F WCI  12
SIOUX CITY     CLOUDY    30  20  66 NW30G37   29.53S WCI  15
6HR MIN TEMP:  30; 6HR MAX TEMP:  42; 6HR PCP: TRACE;

SPENCER        CLOUDY    29  22  75 NW22G31   29.45S WCI  15
6HR MIN TEMP:  29; 6HR MAX TEMP:  39;

STORM LAKE *   CLOUDY    28  23  80 NW23G31   29.46S WCI  14
$$

IAZ055>058-069>071-079>083-090>094-240700-
   SOUTHWEST IOWA

CITY           SKY/WX    TMP DP  RH WIND       PRES   REMARKS
ATLANTIC *     CLOUDY    34  27  75 NW24G31   29.46F WCI  21
AUDUBON *      MOCLDY    30  21  69 NW14G30   29.46F WCI  20
CLARINDA *     MOCLDY    36  28  75 N14G21    29.51R WCI  27
COUNCIL BLFS * CLOUDY    34  25  69 NW21G29   29.49F WCI  22
CRESTON *      CLOUDY    34  27  75 NW28G35   29.43R WCI  20
HARLAN  *      CLOUDY    32  25  74 NW21G31   29.51F WCI  20
LAMONI         CLOUDY    37  31  78 NW25G32   29.40S WCI  25
6HR MIN TEMP:  37; 6HR MAX TEMP:  44; 6HR PCP:  0.05;

RED OAK *      CLOUDY    34  27  75 NW14G20   29.49S WCI  24
SHENANDOAH *   MOCLDY    34  25  69 NW17G24   29.52S WCI  23
$$

IAZ047>049-059>061-072>074-084-240700-
   CENTRAL IOWA

CITY           SKY/WX    TMP DP  RH WIND       PRES   REMARKS
AMES           CLOUDY    35  28  75 NW21G31   29.37F WCI  24
6HR MIN TEMP:  35; 6HR MAX TEMP:  44; 6HR PCP:  0.41;

ANKENY *       CLOUDY    36  30  80 NW20G29   29.38S WCI  25
CHARITON *     CLOUDY    36  32  87 NW21      29.36F WCI  24
DES MOINES     CLOUDY    36  29  75 NW21G40   29.38F WCI  25
6HR MIN TEMP:  36; 6HR MAX TEMP:  46; 6HR PCP:  0.04;

GRINNELL*      LGT SNOW  32  32 100 NW24G30   29.32S WCI  19
KNOXVILLE *    LGT SNOW  34  32  93 NW23G31   29.34S WCI  22
MARSHALLTOWN   LGT SNOW  33  32  96 NW21G33   29.33S FOG     WCI  21
6HR MIN TEMP:  33; 6HR MAX TEMP:  44; 6HR PCP:  0.21;

PELLA *        RAIN      35  33  94 NW20G29   29.35F WCI  23
PERRY *        CLOUDY    34  28  80 NW18G30   29.41F WCI  23
$$

IAZ004>006-015-016-023>025-035-036-240700-
   NORTH CENTRAL IOWA

CITY           SKY/WX    TMP DP  RH WIND       PRES   REMARKS
ALGONA *       CLOUDY    30  27  86 NW23G35   29.40S WCI  17
CLARION *      CLOUDY    32  30  93 NW23G32   29.37S WCI  19
ESTHERVILLE    CLOUDY    28  22  78 NW25G35   29.42F WCI  13
6HR MIN TEMP:  28; 6HR MAX TEMP:  39;

FORT DODGE *   CLOUDY    32  25  74 NW15G23   29.41S WCI  22
MASON CITY     LGT SNOW  31  29  92 NW18G36   29.34F FOG     WCI  19
6HR MIN TEMP:  31; 6HR MAX TEMP:  41; 6HR PCP:  0.01;

FOREST CITY *  CLOUDY    32  30  93 NW21G26   29.35F WCI  20
IOWA FALLS *   LGT SNOW  32  30  93 NW24      29.35S WCI  19
$$

IAZ007>011-017>019-026>030-037>042-050>054-066-240700-
   NORTHEAST IOWA

CITY           SKY/WX    TMP DP  RH WIND       PRES   REMARKS
CEDAR RAPIDS   CLOUDY    37  37 100 NW30G37   29.23F FOG     WCI  24
6HR MIN TEMP:  37; 6HR MAX TEMP:  49; 6HR PCP:  0.01;

CHARLES CITY * CLOUDY    34  32  93 NW21G28   29.28F WCI  22
CLINTON *      CLOUDY    46  45  93 W10       29.16F VSB 1/2
DECORAH *      CLOUDY    39  37  93 NW14      29.21F WCI  31
DUBUQUE        LGT RAIN  45  45 100 NW14      29.14F
6HR MIN TEMP:  45; 6HR MAX TEMP:  48; 6HR PCP: TRACE;

MONTICELLO *   CLOUDY    41  41 100 W13G18    29.19R FOG
OELWEIN *      LGT RAIN  37  36  93 NW24      29.24F WCI  26
WATERLOO       LGT RAIN  35  34  96 NW21G31   29.27F FOG     WCI  24
6HR MIN TEMP:  35; 6HR MAX TEMP:  48; 6HR PCP:  0.05;

$$

IAZ064-065-067-068-078-240700-
   EAST CENTRAL IOWA

CITY           SKY/WX    TMP DP  RH WIND       PRES   REMARKS
DAVENPORT      CLOUDY    44  42  93 NW18      29.16S FOG
6HR MIN TEMP:  44; 6HR MAX TEMP:  50; 6HR PCP:  0.03;

IOWA CITY      CLOUDY    40  40 100 NW21G29   29.24S FOG     WCI  30
6HR MIN TEMP:  40; 6HR MAX TEMP:  49; 6HR PCP:  0.01;

MT. PLEASANT * LGT RAIN  39  39 100 NW18G28   29.25R WCI  30
MUSCATINE *    CLOUDY    43  41  93 NW22      29.20F
QUAD CITIES    CLOUDY    45  44  97 NW23      29.15S
6HR MIN TEMP:  46; 6HR MAX TEMP:  51; 6HR PCP:  0.05;

$$

IAZ062-063-075>077-085>089-095>099-240700-
   SOUTHEAST IOWA

CITY           SKY/WX    TMP DP  RH WIND       PRES   REMARKS
BURLINGTON     CLOUDY    42  41  96 NW20G31   29.21R FOG
6HR MIN TEMP:  42; 6HR MAX TEMP:  51; 6HR PCP:  0.03;

FAIRFIELD *    LGT RAIN  37  36  93 NW21G36   29.28R WCI  27
FORT MADISON * CLOUDY    43  43 100 NW17G30   29.24S FOG
KEOKUK *       CLOUDY    43  41  93 NW14G28   29.25R FOG
OSKALOOSA *    LGT RAIN  35  33  94 NW24G30   29.31S WCI  22
CENTERVILLE *  FLURRIES  34  34 100 NW22G29   29.36R WCI  22
OTTUMWA        CLOUDY    36  33  89 NW25      29.31S WCI  24
6HR MIN TEMP:  36; 6HR MAX TEMP:  52; 6HR PCP:  0.13;

WASHINGTON *   MIX PCPN  39  39 100 NW28G33   29.25S WCI  28
$$

ABBREVIATIONS USED IN REMARKS
   TC - TEMPERATURES IN CELSIUS
  WCI - WIND CHILL INDEX
   HX - HEAT INDEX
  VSB - VISIBILITY
$$



USA.gov is the U.S. government's official web portal to all federal, state and local government web resources and services.